Regional Weather Roundup
Issued by NWS

Home | Current Version | Previous Version | Graphics & Text | Print | Product List | Glossary On
Versions: 1 2 3 4 5 6 7 8 9 10 11 12 13 14 15 16 17 18 19 20 21 22 23 24 25 26 27 28 29 30 31 32 33 34 35 36 37 38 39 40 41 42 43 44 45 46 47 48 49 50
000
ASUS43 KMKX 162211
RWRWI

WISCONSIN REGIONAL WEATHER ROUNDUP
NATIONAL WEATHER SERVICE MILWAUKEE/SULLIVAN WI
400 PM CST TUE JAN 16 2018

NOTE: "FAIR" INDICATES FEW OR NO CLOUDS BELOW 12,000 FEET WITH NO
SIGNIFICANT WEATHER AND/OR OBSTRUCTIONS TO VISIBILITY.

WIZ001-002-006>008-014>016-023>028-162300-
NORTHWEST WISCONSIN

CITY           SKY/WX    TMP DP  RH WIND       PRES   REMARKS
SUPERIOR ARPT  FAIR      14   3  61 W8        30.55F WCI   3
ASHLAND        FAIR      14   6  70 SW10      30.51F WCI   1
HAYWARD        FAIR      14   4  64 W5        30.51S WCI   6
SIREN          FAIR       8  -2  64 W9        30.57F WCI  -5
CUMBERLAND     FAIR       9   0  66 W7        30.54R WCI  -3
RICE LAKE      FAIR      10   3  72 CALM      30.57S
CHETEK         FAIR      10   4  74 W7        30.55S WCI   0
LADYSMITH      FAIR      18   8  64 W7        30.51S WCI   9
EAU CLAIRE     FAIR       9   3  77 W13       30.56S WCI  -7
MENOMONIE      FAIR       9   1  71 W10       30.58S WCI  -6
NEW RICHMOND   FAIR       8  -3  61 W7        30.59S WCI  -4
OSCEOLA        FAIR       9  -2  62 W9        30.63F WCI  -5
$$

WIZ003>005-009-010-017-018-162300-
NORTH CENTRAL WISCONSIN

CITY           SKY/WX    TMP DP  RH WIND       PRES   REMARKS
MANITOWISH WTR FAIR      13   8  79 NW3       30.42F
ARBOR VITAE    FAIR      17  11  80 NW3       30.42S
WOODRUFF       FAIR      17  11  80 NW3       30.42S
RHINELANDER    CLOUDY    18   9  68 NW5       30.42S WCI  11
EAGLE RIVER    FLURRIES  17  10  71 NW3       30.40F
LAND O LAKES   FLURRIES  17  12  80 W3        30.42S
PHILLIPS       FAIR      19   9  65 W5        30.44F WCI  12
TOMAHAWK       MOCLDY    19  10  69 NW5       30.44S WCI  12
MEDFORD        FAIR      18  10  70 W10       30.45S WCI   6
MERRILL        CLOUDY    21   9  61 N6        30.45F WCI  13
$$

WIZ029-030-035-036-043>047-162300-
CENTRAL WISCONSIN

CITY           SKY/WX    TMP DP  RH WIND       PRES   REMARKS
WAUSAU         MOCLDY    20   8  60 NW6       30.44S WCI  12
MOSINEE        MOCLDY    19  10  68 NW8       30.47R WCI   9
MARSHFIELD     FAIR      16   9  74 NW9       30.47S WCI   4
STEVENS POINT  CLOUDY    20  10  64 NW7       30.48R WCI  11
WAUPACA        MOCLDY    24  10  56 NW6       30.49R WCI  17
WAUTOMA        FAIR      22  10  60 NW9       30.50R WCI  12
WISC RAPIDS    FAIR      20   9  62 NW10      30.51R WCI   9
CAMP DOUGLAS   PTCLDY    19  10  68 W10       30.53R WCI   8
$$

WIZ011>013-019>022-031-037>040-048>050-162300-
NORTHEAST WISCONSIN

CITY           SKY/WX    TMP DP  RH WIND       PRES   REMARKS
ANTIGO         MOCLDY    17   7  66 NW10      30.43R WCI   5
SHAWANO        FAIR      23  10  58 NW6       30.47S WCI  16
OCONTO         CLOUDY    20  15  81 W3        30.47S
STURGEON BAY   FAIR      20   9  62 CALM      30.47S
GREEN BAY      FAIR      19  11  70 W6        30.48R WCI  11
MANITOWOC      FAIR      20  10  65 NW6       30.49R WCI  12
APPLETON       MOCLDY    19  10  68 NW7       30.45S WCI  10
CLINTONVILLE   MOCLDY    21   9  58 NW8       30.48R WCI  12
OSHKOSH        FAIR      19  12  74 W3        30.48R
$$

WIZ032>034-041-042-053>061-162300-
SOUTHWEST WISCONSIN

CITY           SKY/WX    TMP DP  RH WIND       PRES   REMARKS
LA CROSSE      FAIR      14   5  67 NW9       30.59S WCI   2
SPARTA         FAIR      16   8  73 W5        30.57R WCI   8
VIROQUA        FAIR      14   9  81 W8        30.52S WCI   3
BOSCOBEL       FAIR      17   7  64 W6        30.58R WCI   9
PRAIRIE DU CHI FAIR      14   6  68 W8        30.59S WCI   3
PLATTEVILLE    FAIR      15  10  77 W9        30.54R WCI   4
$$

WIZ056-057-062-063-064-067-068-162300-
SOUTH CENTRAL WISCONSIN

CITY           SKY/WX    TMP DP  RH WIND       PRES   REMARKS
REEDSBURG      FAIR      19  11  70 W7        30.51S WCI   9
BARABOO/DELLS  FAIR      20  11  68 NW3       30.51R
LONE ROCK      FAIR      19  10  68 W8        30.55R WCI   9
MINERAL POINT  FAIR      19  12  73 W9        30.51R WCI   9
MADISON        FAIR      20  11  68 N7        30.51R WCI  11
MIDDLETON      FAIR      21  12  67 NW7       30.51R WCI  12
WATERTOWN      FAIR      19  13  75 NW7       30.49R WCI  10
MONROE         FAIR      21  12  68 NW7       30.49R WCI  13
JANESVILLE     CLEAR     21  12  68 NW9       30.50R WCI  11
$$

WIZ051-052-058>065-066-070>072-162300-
SOUTHEAST WISCONSIN

CITY           SKY/WX    TMP DP  RH WIND       PRES   REMARKS
MILWAUKEE      FAIR      24   9  52 N14       30.47R WCI  12
WAUKESHA       CLEAR     19   9  63 NW9       30.48R WCI   9
MILWAUKEE/TIMM CLEAR     21   7  53 NW13      30.48R WCI   9
RACINE         MOCLDY    23  10  57 N12       30.48R WCI  12
BURLINGTON     FAIR      20  10  63 NW12      30.49R WCI   8
KENOSHA        FAIR      22   8  55 NW8       30.47R WCI  12
FOND DU LAC    FAIR      21  10  62 N3        30.48R
SHEBOYGAN      FAIR      19  10  68 NW7       30.47R WCI  10
WEST BEND      FAIR      19  10  68 NW12      30.47R WCI   7
JUNEAU         FAIR      19  11  73 NW3       30.49S
$$

LSZ147-162-162300-
LAKE SUPERIOR

STATION/POSITION TIME  TEMP    WIND        PRES    WAVE
                       AIR SEA DIR/SP/G            HT/PER
                 (UTC) (F)     (DEG/KT/KT) (MB)    (FT/S)
DEVILS ISLAND    2200   14     230/ 19/ 22 1034.0F
SAXON HARBOR     2130   20     240/  3/  9 1032.5S
$$

LMZ867-665-643>646-162300-
LAKE MICHIGAN

STATION/POSITION TIME  TEMP    WIND        PRES    WAVE
                       AIR SEA DIR/SP/G            HT/PER
                 (UTC) (F)     (DEG/KT/KT) (MB)    (FT/S)
NORTHPORT PIER   2140   19     280/  5/ 11 1031.2S
KEWAUNEE LAKESHO 2142   20     350/  3/  5 1030.9S
SHEBOYGAN LAKESH 2200   21     310/ 10/ 12 1033.3R
PORT WASHINGTON  2130   22     330/  5/ 11 1032.8R
MILWAUKEE LAKESH 2150   23     340/ 10/ 14   N/A
KENOSHA   LAKESH 2200   24     330/ 10/ 14 1031.8
$$

TC  - TEMPERATURE IN CELSIUS
VSB - VISIBILITY IN STATUTE MILES
WCI - WIND CHILL INDEX
HX  - HEAT INDEX





USA.gov is the U.S. government's official web portal to all federal, state and local government web resources and services.